NORTHEAST SUFFOLK  -  Frost Advisory Frost Advisory     Special Weather Statement Special Weather Statement        NORTHERN NASSAU  -  Frost Advisory Frost Advisory     Special Weather Statement Special Weather Statement        NORTHWEST SUFFOLK  -  Frost Advisory Frost Advisory     Special Weather Statement Special Weather Statement        SOUTHEAST SUFFOLK  -  Frost Advisory Frost Advisory     Special Weather Statement Special Weather Statement        SOUTHERN NASSAU  -  Frost Advisory Frost Advisory     Special Weather Statement Special Weather Statement        SOUTHWEST SUFFOLK  -  Frost Advisory Frost Advisory     Special Weather Statement Special Weather Statement        NORTHERN QUEENS  -  Special Weather Statement Special Weather Statement        SOUTHERN QUEENS  -  Special Weather Statement Special Weather Statement      

Active alerts

Northern Nassau
  Details for Northern Nassau Frost Advisory  +1 additional alert
Southern Nassau
  Details for Southern Nassau Frost Advisory  +1 additional alert
Northwest Suffolk
  Details for Northwest Suffolk Frost Advisory  +1 additional alert
Southwest Suffolk
  Details for Southwest Suffolk Frost Advisory  +1 additional alert
Northeast Suffolk
  Details for Northeast Suffolk Frost Advisory  +1 additional alert
Southeast Suffolk
  Details for Southeast Suffolk Frost Advisory  +1 additional alert
Northern Queens
  Details for Northern Queens Special Weather Statement
Southern Queens
  Details for Southern Queens Special Weather Statement


WXM80 ListenWXM80 Stop

You find our weather info also at:

UK Metoffice

WeatherCloud

Weather Underground

Northeastern Weather Network

AWEKAS

Citizen Weather Observer Program (CWOP)

HAMweather, WeatherForYou, PWS Weather


Weather Underground History page Text

Daily Summary for August 24, 2017 Units:  Both    English   Metric
« Previous Day
Next Day »
Daily Weekly Monthly Yearly Custom
  High: Low: Average:
Temperature: 84.3 °F /  29.1 °C 60.8 °F /  16 °C 71.3 °F /  21.8 °C
Dew Point: 65.0 °F /  18.3 °C 55.4 °F /  13 °C 60.1 °F /  15.6 °C
Humidity: 96 % 38 % 71 %
Wind Speed: 5.2 mph /  8.4 km/h - 1.2 mph /  1.9 km/h
Wind Gust: 10.0 mph /  16.1 km/h - -
Wind:- - SSW
Pressure: 29.92 in /  1013.1 hPa 29.82 in /  1009.7 hPa -
Precipitation: 0.00 in /  0 mm    
Historical Graphs
 
 
Tabular Data for August 24, 2017
Time Temperature Dew Point Pressure Wind Wind Speed Wind Gust Humidity Rainfall Rate (Hourly)
00:02 66.7 °F /  19.3 °C 61.4 °F /  16.3 °C 29.82 in /  1009.7 hPa Calm     83 % 0.00 in /  0 mm
00:07 66.4 °F /  19.1 °C 61.1 °F /  16.2 °C 29.82 in /  1009.7 hPa Calm     83 % 0.00 in /  0 mm
00:13 66.2 °F /  19 °C 60.9 °F /  16.1 °C 29.82 in /  1009.7 hPa Calm     83 % 0.00 in /  0 mm
00:18 66.0 °F /  18.9 °C 60.7 °F /  15.9 °C 29.82 in /  1009.7 hPa Calm     83 % 0.00 in /  0 mm
00:23 65.8 °F /  18.8 °C 60.8 °F /  16 °C 29.83 in /  1010 hPa Calm     84 % 0.00 in /  0 mm
00:28 65.7 °F /  18.7 °C 60.7 °F /  15.9 °C 29.82 in /  1009.7 hPa Calm     84 % 0.00 in /  0 mm
00:38 65.3 °F /  18.5 °C 60.7 °F /  15.9 °C 29.82 in /  1009.7 hPa Calm   1.2 mph /  1.9 km/h 85 % 0.00 in /  0 mm
00:43 65.1 °F /  18.4 °C 60.8 °F /  16 °C 29.83 in /  1010 hPa Calm     86 % 0.00 in /  0 mm
00:48 64.9 °F /  18.3 °C 60.6 °F /  15.9 °C 29.83 in /  1010 hPa Calm     86 % 0.00 in /  0 mm
00:53 64.8 °F /  18.2 °C 60.5 °F /  15.8 °C 29.83 in /  1010 hPa Calm     86 % 0.00 in /  0 mm
00:58 64.6 °F /  18.1 °C 60.3 °F /  15.7 °C 29.83 in /  1010 hPa Calm     86 % 0.00 in /  0 mm
01:03 64.5 °F /  18.1 °C 60.2 °F /  15.7 °C 29.83 in /  1010 hPa Calm     86 % 0.00 in /  0 mm
01:08 64.3 °F /  17.9 °C 60.0 °F /  15.6 °C 29.83 in /  1010 hPa Calm     86 % 0.00 in /  0 mm
01:13 64.2 °F /  17.9 °C 60.2 °F /  15.7 °C 29.83 in /  1010 hPa Calm     87 % 0.00 in /  0 mm
01:18 64.1 °F /  17.8 °C 60.2 °F /  15.7 °C 29.83 in /  1010 hPa Calm     87 % 0.00 in /  0 mm
01:23 64.0 °F /  17.8 °C 60.1 °F /  15.6 °C 29.82 in /  1009.7 hPa Calm     87 % 0.00 in /  0 mm
01:28 63.8 °F /  17.7 °C 60.2 °F /  15.7 °C 29.82 in /  1009.7 hPa Calm     88 % 0.00 in /  0 mm
01:33 63.8 °F /  17.7 °C 60.2 °F /  15.7 °C 29.82 in /  1009.7 hPa Calm     88 % 0.00 in /  0 mm
01:38 63.6 °F /  17.6 °C 60.0 °F /  15.6 °C 29.82 in /  1009.7 hPa Calm     88 % 0.00 in /  0 mm
01:43 63.5 °F /  17.5 °C 59.9 °F /  15.5 °C 29.82 in /  1009.7 hPa Calm     88 % 0.00 in /  0 mm
01:49 63.3 °F /  17.4 °C 59.7 °F /  15.4 °C 29.82 in /  1009.7 hPa Calm     88 % 0.00 in /  0 mm
01:54 63.2 °F /  17.3 °C 59.9 °F /  15.5 °C 29.82 in /  1009.7 hPa Calm     89 % 0.00 in /  0 mm
01:59 63.1 °F /  17.3 °C 59.8 °F /  15.4 °C 29.82 in /  1009.7 hPa Calm     89 % 0.00 in /  0 mm
02:04 63.0 °F /  17.2 °C 59.7 °F /  15.4 °C 29.82 in /  1009.7 hPa Calm   1.2 mph /  1.9 km/h 89 % 0.00 in /  0 mm
02:09 62.9 °F /  17.2 °C 59.6 °F /  15.3 °C 29.82 in /  1009.7 hPa Calm     89 % 0.00 in /  0 mm
02:14 62.8 °F /  17.1 °C 59.5 °F /  15.3 °C 29.82 in /  1009.7 hPa Calm     89 % 0.00 in /  0 mm
02:19 62.7 °F /  17.1 °C 59.7 °F /  15.4 °C 29.82 in /  1009.7 hPa Calm     90 % 0.00 in /  0 mm
02:24 62.6 °F /  17 °C 59.6 °F /  15.3 °C 29.82 in /  1009.7 hPa Calm     90 % 0.00 in /  0 mm
02:29 62.5 °F /  16.9 °C 59.5 °F /  15.3 °C 29.82 in /  1009.7 hPa Calm     90 % 0.00 in /  0 mm
02:34 62.4 °F /  16.9 °C 59.4 °F /  15.2 °C 29.82 in /  1009.7 hPa Calm     90 % 0.00 in /  0 mm
02:39 62.3 °F /  16.8 °C 59.3 °F /  15.2 °C 29.82 in /  1009.7 hPa Calm     90 % 0.00 in /  0 mm
02:44 62.2 °F /  16.8 °C 59.2 °F /  15.1 °C 29.82 in /  1009.7 hPa Calm     90 % 0.00 in /  0 mm
02:49 62.1 °F /  16.7 °C 59.1 °F /  15.1 °C 29.82 in /  1009.7 hPa Calm     90 % 0.00 in /  0 mm
02:54 62.1 °F /  16.7 °C 59.1 °F /  15.1 °C 29.82 in /  1009.7 hPa Calm     90 % 0.00 in /  0 mm
02:59 62.0 °F /  16.7 °C 59.0 °F /  15 °C 29.82 in /  1009.7 hPa Calm     90 % 0.00 in /  0 mm
03:04 61.9 °F /  16.6 °C 58.9 °F /  14.9 °C 29.82 in /  1009.7 hPa Calm     90 % 0.00 in /  0 mm
03:09 61.8 °F /  16.6 °C 58.8 °F /  14.9 °C 29.82 in /  1009.7 hPa Calm     90 % 0.00 in /  0 mm
03:14 61.7 °F /  16.5 °C 58.7 °F /  14.8 °C 29.83 in /  1010 hPa Calm     90 % 0.00 in /  0 mm
03:19 61.6 °F /  16.4 °C 58.6 °F /  14.8 °C 29.82 in /  1009.7 hPa Calm     90 % 0.00 in /  0 mm
03:24 61.6 °F /  16.4 °C 58.6 °F /  14.8 °C 29.82 in /  1009.7 hPa Calm     90 % 0.00 in /  0 mm
03:29 61.5 °F /  16.4 °C 58.8 °F /  14.9 °C 29.83 in /  1010 hPa Calm     91 % 0.00 in /  0 mm
03:34 61.4 °F /  16.3 °C 58.7 °F /  14.8 °C 29.82 in /  1009.7 hPa Calm     91 % 0.00 in /  0 mm
03:39 61.4 °F /  16.3 °C 58.7 °F /  14.8 °C 29.82 in /  1009.7 hPa WNW 0.1 mph /  0.2 km/h 1.2 mph /  1.9 km/h 91 % 0.00 in /  0 mm
03:44 61.3 °F /  16.3 °C 58.7 °F /  14.8 °C 29.82 in /  1009.7 hPa Calm     91 % 0.00 in /  0 mm
03:49 61.2 °F /  16.2 °C 58.6 °F /  14.8 °C 29.82 in /  1009.7 hPa Calm     91 % 0.00 in /  0 mm
03:55 61.2 °F /  16.2 °C 58.6 °F /  14.8 °C 29.82 in /  1009.7 hPa Calm     91 % 0.00 in /  0 mm
03:59 61.1 °F /  16.2 °C 58.5 °F /  14.7 °C 29.82 in /  1009.7 hPa Calm     91 % 0.00 in /  0 mm
04:05 61.1 °F /  16.2 °C 58.5 °F /  14.7 °C 29.83 in /  1010 hPa Calm     91 % 0.00 in /  0 mm
04:10 61.1 °F /  16.2 °C 58.8 °F /  14.9 °C 29.82 in /  1009.7 hPa Calm     92 % 0.00 in /  0 mm
04:15 61.0 °F /  16.1 °C 58.7 °F /  14.8 °C 29.83 in /  1010 hPa Calm     92 % 0.00 in /  0 mm
04:20 60.9 °F /  16.1 °C 58.6 °F /  14.8 °C 29.82 in /  1009.7 hPa Calm     92 % 0.00 in /  0 mm
04:25 60.9 °F /  16.1 °C 58.6 °F /  14.8 °C 29.83 in /  1010 hPa Calm     92 % 0.00 in /  0 mm
04:30 60.9 °F /  16.1 °C 58.6 °F /  14.8 °C 29.83 in /  1010 hPa Calm     92 % 0.00 in /  0 mm
04:35 60.8 °F /  16 °C 58.5 °F /  14.7 °C 29.83 in /  1010 hPa Calm     92 % 0.00 in /  0 mm
04:40 60.8 °F /  16 °C 58.5 °F /  14.7 °C 29.83 in /  1010 hPa Calm     92 % 0.00 in /  0 mm
04:45 60.8 °F /  16 °C 58.5 °F /  14.7 °C 29.83 in /  1010 hPa WNW 0.6 mph /  1 km/h 1.2 mph /  1.9 km/h 92 % 0.00 in /  0 mm
04:50 60.8 °F /  16 °C 58.8 °F /  14.9 °C 29.83 in /  1010 hPa WNW 1.7 mph /  2.7 km/h 3.5 mph /  5.6 km/h 93 % 0.00 in /  0 mm
04:55 60.8 °F /  16 °C 58.8 °F /  14.9 °C 29.83 in /  1010 hPa WNW 0.9 mph /  1.4 km/h 2.0 mph /  3.2 km/h 93 % 0.00 in /  0 mm
05:00 60.9 °F /  16.1 °C 59.2 °F /  15.1 °C 29.84 in /  1010.4 hPa WNW 0.7 mph /  1.1 km/h 2.3 mph /  3.7 km/h 94 % 0.00 in /  0 mm
05:05 61.1 °F /  16.2 °C 59.4 °F /  15.2 °C 29.84 in /  1010.4 hPa WNW 1.6 mph /  2.6 km/h 3.5 mph /  5.6 km/h 94 % 0.00 in /  0 mm
05:10 61.3 °F /  16.3 °C 59.9 °F /  15.5 °C 29.84 in /  1010.4 hPa WNW 0.1 mph /  0.2 km/h 3.5 mph /  5.6 km/h 95 % 0.00 in /  0 mm
05:15 61.6 °F /  16.4 °C 60.2 °F /  15.7 °C 29.84 in /  1010.4 hPa Calm     95 % 0.00 in /  0 mm
05:16 61.6 °F /  16.4 °C 60.2 °F /  15.7 °C 29.84 in /  1010.4 hPa Calm     95 % 0.00 in /  0 mm
05:21 61.8 °F /  16.6 °C 60.4 °F /  15.8 °C 29.84 in /  1010.4 hPa Calm     95 % 0.00 in /  0 mm
05:26 61.9 °F /  16.6 °C 60.5 °F /  15.8 °C 29.84 in /  1010.4 hPa Calm     95 % 0.00 in /  0 mm
05:27 61.9 °F /  16.6 °C 60.5 °F /  15.8 °C 29.84 in /  1010.4 hPa Calm     95 % 0.00 in /  0 mm
05:32 62.0 °F /  16.7 °C 60.6 °F /  15.9 °C 29.84 in /  1010.4 hPa Calm     95 % 0.00 in /  0 mm
05:37 62.0 °F /  16.7 °C 60.6 °F /  15.9 °C 29.84 in /  1010.4 hPa Calm     95 % 0.00 in /  0 mm
05:42 62.0 °F /  16.7 °C 60.6 °F /  15.9 °C 29.85 in /  1010.7 hPa Calm     95 % 0.00 in /  0 mm
05:47 62.0 °F /  16.7 °C 60.6 °F /  15.9 °C 29.85 in /  1010.7 hPa Calm     95 % 0.00 in /  0 mm
05:52 62.0 °F /  16.7 °C 60.6 °F /  15.9 °C 29.85 in /  1010.7 hPa Calm   1.2 mph /  1.9 km/h 95 % 0.00 in /  0 mm
05:57 61.9 °F /  16.6 °C 60.5 °F /  15.8 °C 29.85 in /  1010.7 hPa Calm     95 % 0.00 in /  0 mm
06:02 61.9 °F /  16.6 °C 60.5 °F /  15.8 °C 29.85 in /  1010.7 hPa Calm     95 % 0.00 in /  0 mm
06:07 61.9 °F /  16.6 °C 60.5 °F /  15.8 °C 29.86 in /  1011.1 hPa Calm   1.2 mph /  1.9 km/h 95 % 0.00 in /  0 mm
06:12 61.8 °F /  16.6 °C 60.4 °F /  15.8 °C 29.86 in /  1011.1 hPa Calm     95 % 0.00 in /  0 mm
06:17 61.8 °F /  16.6 °C 60.4 °F /  15.8 °C 29.86 in /  1011.1 hPa WNW 2.8 mph /  4.5 km/h 4.0 mph /  6.4 km/h 95 % 0.00 in /  0 mm
06:22 61.8 °F /  16.6 °C 60.4 °F /  15.8 °C 29.86 in /  1011.1 hPa WNW 0.1 mph /  0.2 km/h   95 % 0.00 in /  0 mm
06:27 61.9 °F /  16.6 °C 60.5 °F /  15.8 °C 29.86 in /  1011.1 hPa Calm     95 % 0.00 in /  0 mm
06:32 62.0 °F /  16.7 °C 60.6 °F /  15.9 °C 29.86 in /  1011.1 hPa NNE 1.9 mph /  3.1 km/h 4.0 mph /  6.4 km/h 95 % 0.00 in /  0 mm
06:37 62.2 °F /  16.8 °C 60.8 °F /  16 °C 29.86 in /  1011.1 hPa NNE 0.2 mph /  0.3 km/h 1.2 mph /  1.9 km/h 95 % 0.00 in /  0 mm
06:41 62.2 °F /  16.8 °C 60.8 °F /  16 °C 29.87 in /  1011.4 hPa Calm     95 % 0.00 in /  0 mm
06:46 62.3 °F /  16.8 °C 61.1 °F /  16.2 °C 29.87 in /  1011.4 hPa Calm     96 % 0.00 in /  0 mm
06:51 62.4 °F /  16.9 °C 60.9 °F /  16.1 °C 29.87 in /  1011.4 hPa NW 0.7 mph /  1.1 km/h 3.5 mph /  5.6 km/h 95 % 0.00 in /  0 mm
07:02 62.5 °F /  16.9 °C 61.0 °F /  16.1 °C 29.87 in /  1011.4 hPa NNE 0.9 mph /  1.4 km/h 4.6 mph /  7.4 km/h 95 % 0.00 in /  0 mm
07:06 62.7 °F /  17.1 °C 61.2 °F /  16.2 °C 29.87 in /  1011.4 hPa North 1.6 mph /  2.6 km/h 3.5 mph /  5.6 km/h 95 % 0.00 in /  0 mm
07:11 62.9 °F /  17.2 °C 61.4 °F /  16.3 °C 29.87 in /  1011.4 hPa North 0.1 mph /  0.2 km/h 3.5 mph /  5.6 km/h 95 % 0.00 in /  0 mm
07:16 63.2 °F /  17.3 °C 61.7 °F /  16.5 °C 29.87 in /  1011.4 hPa NNE 2.5 mph /  4 km/h 3.5 mph /  5.6 km/h 95 % 0.00 in /  0 mm
07:21 63.4 °F /  17.4 °C 61.6 °F /  16.4 °C 29.87 in /  1011.4 hPa NNE 0.7 mph /  1.1 km/h 3.5 mph /  5.6 km/h 94 % 0.00 in /  0 mm
07:26 63.6 °F /  17.6 °C 61.8 °F /  16.6 °C 29.88 in /  1011.7 hPa NNE 0.1 mph /  0.2 km/h 1.2 mph /  1.9 km/h 94 % 0.00 in /  0 mm
07:31 63.8 °F /  17.7 °C 61.4 °F /  16.3 °C 29.88 in /  1011.7 hPa NNE 0.3 mph /  0.5 km/h 2.0 mph /  3.2 km/h 92 % 0.00 in /  0 mm
07:36 64.1 °F /  17.8 °C 61.4 °F /  16.3 °C 29.88 in /  1011.7 hPa NNE 3.3 mph /  5.3 km/h 4.6 mph /  7.4 km/h 91 % 0.00 in /  0 mm
07:41 64.5 °F /  18.1 °C 61.5 °F /  16.4 °C 29.89 in /  1012.1 hPa NNW 1.7 mph /  2.7 km/h 4.6 mph /  7.4 km/h 90 % 0.00 in /  0 mm
07:46 64.8 °F /  18.2 °C 61.5 °F /  16.4 °C 29.89 in /  1012.1 hPa NNW 1.2 mph /  1.9 km/h 2.3 mph /  3.7 km/h 89 % 0.00 in /  0 mm
07:51 65.1 °F /  18.4 °C 61.5 °F /  16.4 °C 29.89 in /  1012.1 hPa NNE 0.4 mph /  0.6 km/h 2.3 mph /  3.7 km/h 88 % 0.00 in /  0 mm
07:56 65.4 °F /  18.6 °C 61.8 °F /  16.6 °C 29.89 in /  1012.1 hPa North 2.2 mph /  3.5 km/h 3.5 mph /  5.6 km/h 88 % 0.00 in /  0 mm
08:01 65.6 °F /  18.7 °C 61.0 °F /  16.1 °C 29.89 in /  1012.1 hPa North 4.8 mph /  7.7 km/h 6.0 mph /  9.7 km/h 85 % 0.00 in /  0 mm
08:06 65.8 °F /  18.8 °C 60.8 °F /  16 °C 29.89 in /  1012.1 hPa NNE 1.3 mph /  2.1 km/h 3.5 mph /  5.6 km/h 84 % 0.00 in /  0 mm
08:11 65.9 °F /  18.8 °C 61.3 °F /  16.3 °C 29.89 in /  1012.1 hPa NNE 0.1 mph /  0.2 km/h 1.2 mph /  1.9 km/h 85 % 0.00 in /  0 mm
08:16 65.9 °F /  18.8 °C 61.3 °F /  16.3 °C 29.90 in /  1012.4 hPa NNE 0.1 mph /  0.2 km/h 2.3 mph /  3.7 km/h 85 % 0.00 in /  0 mm
08:21 66.0 °F /  18.9 °C 61.4 °F /  16.3 °C 29.90 in /  1012.4 hPa Calm     85 % 0.00 in /  0 mm
08:26 66.0 °F /  18.9 °C 61.4 °F /  16.3 °C 29.90 in /  1012.4 hPa NNW 0.2 mph /  0.3 km/h 1.2 mph /  1.9 km/h 85 % 0.00 in /  0 mm
08:31 66.1 °F /  18.9 °C 61.5 °F /  16.4 °C 29.90 in /  1012.4 hPa NNE 0.8 mph /  1.3 km/h 3.5 mph /  5.6 km/h 85 % 0.00 in /  0 mm
08:36 66.1 °F /  18.9 °C 61.1 °F /  16.2 °C 29.90 in /  1012.4 hPa North 2.5 mph /  4 km/h 3.5 mph /  5.6 km/h 84 % 0.00 in /  0 mm
08:41 66.2 °F /  19 °C 61.2 °F /  16.2 °C 29.89 in /  1012.1 hPa North 0.4 mph /  0.6 km/h 3.5 mph /  5.6 km/h 84 % 0.00 in /  0 mm
08:46 66.3 °F /  19.1 °C 61.3 °F /  16.3 °C 29.89 in /  1012.1 hPa NNE 2.2 mph /  3.5 km/h 3.5 mph /  5.6 km/h 84 % 0.00 in /  0 mm
08:51 66.4 °F /  19.1 °C 61.4 °F /  16.3 °C 29.89 in /  1012.1 hPa Calm   1.2 mph /  1.9 km/h 84 % 0.00 in /  0 mm
08:56 66.5 °F /  19.2 °C 61.2 °F /  16.2 °C 29.89 in /  1012.1 hPa NNE 0.3 mph /  0.5 km/h 1.2 mph /  1.9 km/h 83 % 0.00 in /  0 mm
09:01 66.7 °F /  19.3 °C 61.4 °F /  16.3 °C 29.89 in /  1012.1 hPa NNE 0.5 mph /  0.8 km/h 3.5 mph /  5.6 km/h 83 % 0.00 in /  0 mm
09:06 66.8 °F /  19.3 °C 61.1 °F /  16.2 °C 29.89 in /  1012.1 hPa North 0.7 mph /  1.1 km/h 3.5 mph /  5.6 km/h 82 % 0.00 in /  0 mm
09:11 67.1 °F /  19.5 °C 61.1 °F /  16.2 °C 29.89 in /  1012.1 hPa NW 1.1 mph /  1.8 km/h 2.3 mph /  3.7 km/h 81 % 0.00 in /  0 mm
09:17 67.2 °F /  19.6 °C 61.2 °F /  16.2 °C 29.89 in /  1012.1 hPa NNE 1.0 mph /  1.6 km/h 4.6 mph /  7.4 km/h 81 % 0.00 in /  0 mm
09:22 67.5 °F /  19.7 °C 61.8 °F /  16.6 °C 29.89 in /  1012.1 hPa North 2.0 mph /  3.2 km/h 4.6 mph /  7.4 km/h 82 % 0.00 in /  0 mm
09:27 67.7 °F /  19.8 °C 61.7 °F /  16.5 °C 29.90 in /  1012.4 hPa WNW 0.3 mph /  0.5 km/h 3.5 mph /  5.6 km/h 81 % 0.00 in /  0 mm
09:32 67.9 °F /  19.9 °C 61.9 °F /  16.6 °C 29.90 in /  1012.4 hPa NW 1.1 mph /  1.8 km/h 3.5 mph /  5.6 km/h 81 % 0.00 in /  0 mm
09:37 68.2 °F /  20.1 °C 61.8 °F /  16.6 °C 29.90 in /  1012.4 hPa North 2.2 mph /  3.5 km/h 4.0 mph /  6.4 km/h 80 % 0.00 in /  0 mm
09:42 68.5 °F /  20.3 °C 61.7 °F /  16.5 °C 29.90 in /  1012.4 hPa NNE 2.5 mph /  4 km/h 4.6 mph /  7.4 km/h 79 % 0.00 in /  0 mm
09:47 69.0 °F /  20.6 °C 62.6 °F /  17 °C 29.90 in /  1012.4 hPa NW 0.7 mph /  1.1 km/h 2.3 mph /  3.7 km/h 80 % 0.00 in /  0 mm
09:52 69.7 °F /  20.9 °C 63.3 °F /  17.4 °C 29.90 in /  1012.4 hPa NNE 1.9 mph /  3.1 km/h 4.6 mph /  7.4 km/h 80 % 0.00 in /  0 mm
09:57 70.6 °F /  21.4 °C 63.0 °F /  17.2 °C 29.90 in /  1012.4 hPa NNE 3.4 mph /  5.5 km/h 4.6 mph /  7.4 km/h 77 % 0.00 in /  0 mm
10:02 71.4 °F /  21.9 °C 62.3 °F /  16.8 °C 29.90 in /  1012.4 hPa NNE 0.9 mph /  1.4 km/h 3.5 mph /  5.6 km/h 73 % 0.00 in /  0 mm
10:07 71.9 °F /  22.2 °C 62.8 °F /  17.1 °C 29.90 in /  1012.4 hPa NNE 1.5 mph /  2.4 km/h 4.0 mph /  6.4 km/h 73 % 0.00 in /  0 mm
10:12 72.2 °F /  22.3 °C 63.1 °F /  17.3 °C 29.90 in /  1012.4 hPa North 2.7 mph /  4.3 km/h 4.6 mph /  7.4 km/h 73 % 0.00 in /  0 mm
10:17 72.3 °F /  22.4 °C 62.4 °F /  16.9 °C 29.89 in /  1012.1 hPa North 2.7 mph /  4.3 km/h 3.5 mph /  5.6 km/h 71 % 0.00 in /  0 mm
10:22 72.3 °F /  22.4 °C 62.4 °F /  16.9 °C 29.90 in /  1012.4 hPa NNE 3.2 mph /  5.1 km/h 4.6 mph /  7.4 km/h 71 % 0.00 in /  0 mm
10:27 72.3 °F /  22.4 °C 62.0 °F /  16.7 °C 29.89 in /  1012.1 hPa NNW 3.7 mph /  6 km/h 4.6 mph /  7.4 km/h 70 % 0.00 in /  0 mm
10:32 72.4 °F /  22.4 °C 62.5 °F /  16.9 °C 29.89 in /  1012.1 hPa NE 2.3 mph /  3.7 km/h 4.6 mph /  7.4 km/h 71 % 0.00 in /  0 mm
10:37 72.8 °F /  22.7 °C 64.0 °F /  17.8 °C 29.89 in /  1012.1 hPa NNE 0.4 mph /  0.6 km/h 1.2 mph /  1.9 km/h 74 % 0.00 in /  0 mm
10:42 73.2 °F /  22.9 °C 62.8 °F /  17.1 °C 29.89 in /  1012.1 hPa NNE 4.0 mph /  6.4 km/h 5.8 mph /  9.3 km/h 70 % 0.00 in /  0 mm
10:47 73.8 °F /  23.2 °C 62.6 °F /  17 °C 29.89 in /  1012.1 hPa ENE 2.5 mph /  4 km/h 8.1 mph /  13 km/h 68 % 0.00 in /  0 mm
10:52 74.5 °F /  23.6 °C 64.1 °F /  17.8 °C 29.89 in /  1012.1 hPa North 4.8 mph /  7.7 km/h 6.9 mph /  11.1 km/h 70 % 0.00 in /  0 mm
10:57 75.2 °F /  24 °C 63.5 °F /  17.5 °C 29.89 in /  1012.1 hPa North 0.5 mph /  0.8 km/h 3.5 mph /  5.6 km/h 67 % 0.00 in /  0 mm
11:02 75.9 °F /  24.4 °C 63.3 °F /  17.4 °C 29.89 in /  1012.1 hPa NNE 2.2 mph /  3.5 km/h 5.8 mph /  9.3 km/h 65 % 0.00 in /  0 mm
11:07 76.5 °F /  24.7 °C 63.4 °F /  17.4 °C 29.90 in /  1012.4 hPa NNE 3.8 mph /  6.1 km/h 5.8 mph /  9.3 km/h 64 % 0.00 in /  0 mm
11:12 77.2 °F /  25.1 °C 63.6 °F /  17.6 °C 29.90 in /  1012.4 hPa NW 0.8 mph /  1.3 km/h 3.5 mph /  5.6 km/h 63 % 0.00 in /  0 mm
11:17 77.9 °F /  25.5 °C 64.7 °F /  18.2 °C 29.89 in /  1012.1 hPa North 1.3 mph /  2.1 km/h 4.0 mph /  6.4 km/h 64 % 0.00 in /  0 mm
11:22 78.5 °F /  25.8 °C 63.5 °F /  17.5 °C 29.89 in /  1012.1 hPa Calm   2.3 mph /  3.7 km/h 60 % 0.00 in /  0 mm
11:27 79.1 °F /  26.2 °C 65.0 °F /  18.3 °C 29.89 in /  1012.1 hPa North 1.2 mph /  1.9 km/h 4.0 mph /  6.4 km/h 62 % 0.00 in /  0 mm
11:33 79.5 °F /  26.4 °C 64.4 °F /  18 °C 29.89 in /  1012.1 hPa NNE 4.0 mph /  6.4 km/h 4.6 mph /  7.4 km/h 60 % 0.00 in /  0 mm
11:38 79.9 °F /  26.6 °C 63.8 °F /  17.7 °C 29.89 in /  1012.1 hPa North 2.9 mph /  4.7 km/h 4.6 mph /  7.4 km/h 58 % 0.00 in /  0 mm
11:43 80.2 °F /  26.8 °C 64.1 °F /  17.8 °C 29.89 in /  1012.1 hPa WNW 1.4 mph /  2.3 km/h 4.0 mph /  6.4 km/h 58 % 0.00 in /  0 mm
11:48 80.5 °F /  26.9 °C 64.4 °F /  18 °C 29.89 in /  1012.1 hPa NNE 4.1 mph /  6.6 km/h 4.6 mph /  7.4 km/h 58 % 0.00 in /  0 mm
11:50 80.6 °F /  27 °C 63.5 °F /  17.5 °C 29.88 in /  1011.7 hPa North 1.0 mph /  1.6 km/h 2.3 mph /  3.7 km/h 56 % 0.00 in /  0 mm
11:55 80.9 °F /  27.2 °C 64.7 °F /  18.2 °C 29.88 in /  1011.7 hPa Calm   3.5 mph /  5.6 km/h 58 % 0.00 in /  0 mm
12:00 81.3 °F /  27.4 °C 64.1 °F /  17.8 °C 29.88 in /  1011.7 hPa WNW 1.8 mph /  2.9 km/h 3.5 mph /  5.6 km/h 56 % 0.00 in /  0 mm
12:05 81.4 °F /  27.4 °C 62.6 °F /  17 °C 29.88 in /  1011.7 hPa North 3.7 mph /  6 km/h 6.0 mph /  9.7 km/h 53 % 0.00 in /  0 mm
12:10 81.7 °F /  27.6 °C 65.0 °F /  18.3 °C 29.88 in /  1011.7 hPa North 2.0 mph /  3.2 km/h 6.0 mph /  9.7 km/h 57 % 0.00 in /  0 mm
12:16 81.8 °F /  27.7 °C 64.1 °F /  17.8 °C 29.88 in /  1011.7 hPa NNE 3.0 mph /  4.8 km/h 6.0 mph /  9.7 km/h 55 % 0.00 in /  0 mm
12:21 82.0 °F /  27.8 °C 64.8 °F /  18.2 °C 29.88 in /  1011.7 hPa Calm   4.0 mph /  6.4 km/h 56 % 0.00 in /  0 mm
12:25 82.3 °F /  27.9 °C 64.0 °F /  17.8 °C 29.88 in /  1011.7 hPa North 3.0 mph /  4.8 km/h 6.0 mph /  9.7 km/h 54 % 0.00 in /  0 mm
12:31 82.3 °F /  27.9 °C 64.0 °F /  17.8 °C 29.88 in /  1011.7 hPa NNE 5.0 mph /  8 km/h 7.0 mph /  11.3 km/h 54 % 0.00 in /  0 mm
12:36 82.3 °F /  27.9 °C 64.5 °F /  18.1 °C 29.88 in /  1011.7 hPa NNE 5.0 mph /  8 km/h 7.0 mph /  11.3 km/h 55 % 0.00 in /  0 mm
12:40 82.2 °F /  27.9 °C 64.4 °F /  18 °C 29.88 in /  1011.7 hPa NW 1.3 mph /  2.1 km/h 5.8 mph /  9.3 km/h 55 % 0.00 in /  0 mm
12:45 82.4 °F /  28 °C 64.6 °F /  18.1 °C 29.87 in /  1011.4 hPa NNW 2.4 mph /  3.9 km/h 4.6 mph /  7.4 km/h 55 % 0.00 in /  0 mm
12:50 82.5 °F /  28.1 °C 64.2 °F /  17.9 °C 29.87 in /  1011.4 hPa NW 0.6 mph /  1 km/h 4.6 mph /  7.4 km/h 54 % 0.00 in /  0 mm
12:55 82.7 °F /  28.2 °C 64.9 °F /  18.3 °C 29.87 in /  1011.4 hPa North 2.0 mph /  3.2 km/h 6.0 mph /  9.7 km/h 55 % 0.00 in /  0 mm
13:01 82.7 °F /  28.2 °C 63.8 °F /  17.7 °C 29.87 in /  1011.4 hPa NW 1.0 mph /  1.6 km/h 3.5 mph /  5.6 km/h 53 % 0.00 in /  0 mm
13:06 82.7 °F /  28.2 °C 64.4 °F /  18 °C 29.87 in /  1011.4 hPa NNW 1.0 mph /  1.6 km/h 5.0 mph /  8 km/h 54 % 0.00 in /  0 mm
13:10 82.9 °F /  28.3 °C 64.5 °F /  18.1 °C 29.87 in /  1011.4 hPa North 2.0 mph /  3.2 km/h 4.0 mph /  6.4 km/h 54 % 0.00 in /  0 mm
13:15 83.0 °F /  28.3 °C 62.4 °F /  16.9 °C 29.87 in /  1011.4 hPa NW 1.3 mph /  2.1 km/h 5.8 mph /  9.3 km/h 50 % 0.00 in /  0 mm
13:20 83.4 °F /  28.6 °C 63.4 °F /  17.4 °C 29.87 in /  1011.4 hPa NW 1.4 mph /  2.3 km/h 3.5 mph /  5.6 km/h 51 % 0.00 in /  0 mm
13:25 83.4 °F /  28.6 °C 62.8 °F /  17.1 °C 29.87 in /  1011.4 hPa West 4.8 mph /  7.7 km/h 6.0 mph /  9.7 km/h 50 % 0.00 in /  0 mm
13:30 83.5 °F /  28.6 °C 61.1 °F /  16.2 °C 29.87 in /  1011.4 hPa WNW 2.0 mph /  3.2 km/h 6.0 mph /  9.7 km/h 47 % 0.00 in /  0 mm
13:35 83.7 °F /  28.7 °C 63.1 °F /  17.3 °C 29.87 in /  1011.4 hPa NW 1.0 mph /  1.6 km/h 4.0 mph /  6.4 km/h 50 % 0.00 in /  0 mm
13:41 83.8 °F /  28.8 °C 62.0 °F /  16.7 °C 29.87 in /  1011.4 hPa NNW 1.0 mph /  1.6 km/h 5.0 mph /  8 km/h 48 % 0.00 in /  0 mm
13:45 83.9 °F /  28.8 °C 62.1 °F /  16.7 °C 29.87 in /  1011.4 hPa NW 1.0 mph /  1.6 km/h 5.0 mph /  8 km/h 48 % 0.00 in /  0 mm
13:50 84.2 °F /  29 °C 63.5 °F /  17.5 °C 29.86 in /  1011.1 hPa NNW 1.0 mph /  1.6 km/h 4.0 mph /  6.4 km/h 50 % 0.00 in /  0 mm
13:55 84.2 °F /  29 °C 63.0 °F /  17.2 °C 29.86 in /  1011.1 hPa North 2.0 mph /  3.2 km/h 6.0 mph /  9.7 km/h 49 % 0.00 in /  0 mm
14:01 84.1 °F /  28.9 °C 61.1 °F /  16.2 °C 29.86 in /  1011.1 hPa WSW 1.6 mph /  2.6 km/h 2.3 mph /  3.7 km/h 46 % 0.00 in /  0 mm
14:06 84.2 °F /  29 °C 63.5 °F /  17.5 °C 29.86 in /  1011.1 hPa NNE 0.2 mph /  0.3 km/h 3.5 mph /  5.6 km/h 50 % 0.00 in /  0 mm
14:11 83.9 °F /  28.8 °C 62.7 °F /  17.1 °C 29.86 in /  1011.1 hPa WNW 2.4 mph /  3.9 km/h 5.0 mph /  8 km/h 49 % 0.00 in /  0 mm
14:16 83.9 °F /  28.8 °C 63.3 °F /  17.4 °C 29.86 in /  1011.1 hPa WNW 2.8 mph /  4.5 km/h 5.0 mph /  8 km/h 50 % 0.00 in /  0 mm
14:21 84.1 °F /  28.9 °C 61.1 °F /  16.2 °C 29.86 in /  1011.1 hPa NW 0.5 mph /  0.8 km/h 3.5 mph /  5.6 km/h 46 % 0.00 in /  0 mm
14:26 84.3 °F /  29.1 °C 62.5 °F /  16.9 °C 29.86 in /  1011.1 hPa WNW 0.9 mph /  1.4 km/h 2.3 mph /  3.7 km/h 48 % 0.00 in /  0 mm
14:31 84.3 °F /  29.1 °C 61.3 °F /  16.3 °C 29.86 in /  1011.1 hPa West 0.6 mph /  1 km/h 3.5 mph /  5.6 km/h 46 % 0.00 in /  0 mm
14:36 84.2 °F /  29 °C 59.9 °F /  15.5 °C 29.86 in /  1011.1 hPa SSW 3.0 mph /  4.8 km/h 5.8 mph /  9.3 km/h 44 % 0.00 in /  0 mm
14:41 84.1 °F /  28.9 °C 59.2 °F /  15.1 °C 29.86 in /  1011.1 hPa WNW 2.7 mph /  4.3 km/h 6.9 mph /  11.1 km/h 43 % 0.00 in /  0 mm
14:46 84.1 °F /  28.9 °C 59.2 °F /  15.1 °C 29.86 in /  1011.1 hPa WNW 4.4 mph /  7.1 km/h 5.8 mph /  9.3 km/h 43 % 0.00 in /  0 mm
14:51 84.1 °F /  28.9 °C 59.2 °F /  15.1 °C 29.86 in /  1011.1 hPa WNW 2.9 mph /  4.7 km/h 5.0 mph /  8 km/h 43 % 0.00 in /  0 mm
14:56 84.2 °F /  29 °C 59.3 °F /  15.2 °C 29.86 in /  1011.1 hPa WNW 0.7 mph /  1.1 km/h 3.5 mph /  5.6 km/h 43 % 0.00 in /  0 mm
15:01 84.2 °F /  29 °C 57.9 °F /  14.4 °C 29.86 in /  1011.1 hPa NNW 0.6 mph /  1 km/h 3.5 mph /  5.6 km/h 41 % 0.00 in /  0 mm
15:06 84.2 °F /  29 °C 59.9 °F /  15.5 °C 29.86 in /  1011.1 hPa West 2.9 mph /  4.7 km/h 4.0 mph /  6.4 km/h 44 % 0.00 in /  0 mm
15:11 84.3 °F /  29.1 °C 60.0 °F /  15.6 °C 29.86 in /  1011.1 hPa WNW 2.4 mph /  3.9 km/h 5.8 mph /  9.3 km/h 44 % 0.00 in /  0 mm
15:16 84.2 °F /  29 °C 57.3 °F /  14.1 °C 29.86 in /  1011.1 hPa NNW 0.5 mph /  0.8 km/h 4.6 mph /  7.4 km/h 40 % 0.00 in /  0 mm
15:21 84.1 °F /  28.9 °C 55.7 °F /  13.2 °C 29.86 in /  1011.1 hPa West 4.3 mph /  6.9 km/h 7.0 mph /  11.3 km/h 38 % 0.00 in /  0 mm
15:26 84.1 °F /  28.9 °C 58.5 °F /  14.7 °C 29.86 in /  1011.1 hPa West 1.3 mph /  2.1 km/h 9.2 mph /  14.8 km/h 42 % 0.00 in /  0 mm
15:31 84.1 °F /  28.9 °C 58.5 °F /  14.7 °C 29.86 in /  1011.1 hPa West 5.2 mph /  8.4 km/h 5.8 mph /  9.3 km/h 42 % 0.00 in /  0 mm
15:37 84.1 °F /  28.9 °C 59.2 °F /  15.1 °C 29.86 in /  1011.1 hPa WNW 3.1 mph /  5 km/h 5.0 mph /  8 km/h 43 % 0.00 in /  0 mm
15:42 84.1 °F /  28.9 °C 59.2 °F /  15.1 °C 29.86 in /  1011.1 hPa West 3.1 mph /  5 km/h 8.1 mph /  13 km/h 43 % 0.00 in /  0 mm
15:47 84.2 °F /  29 °C 59.3 °F /  15.2 °C 29.86 in /  1011.1 hPa North 1.2 mph /  1.9 km/h 3.5 mph /  5.6 km/h 43 % 0.00 in /  0 mm
15:52 84.2 °F /  29 °C 60.6 °F /  15.9 °C 29.86 in /  1011.1 hPa WNW 2.3 mph /  3.7 km/h 3.5 mph /  5.6 km/h 45 % 0.00 in /  0 mm
15:57 83.9 °F /  28.8 °C 57.0 °F /  13.9 °C 29.86 in /  1011.1 hPa West 2.6 mph /  4.2 km/h 9.2 mph /  14.8 km/h 40 % 0.00 in /  0 mm
16:02 83.6 °F /  28.7 °C 57.4 °F /  14.1 °C 29.86 in /  1011.1 hPa West 2.1 mph /  3.4 km/h 5.8 mph /  9.3 km/h 41 % 0.00 in /  0 mm
16:07 83.5 °F /  28.6 °C 57.3 °F /  14.1 °C 29.86 in /  1011.1 hPa WNW 3.6 mph /  5.8 km/h 5.8 mph /  9.3 km/h 41 % 0.00 in /  0 mm
16:12 83.3 °F /  28.5 °C 56.5 °F /  13.6 °C 29.86 in /  1011.1 hPa WNW 2.4 mph /  3.9 km/h 8.1 mph /  13 km/h 40 % 0.00 in /  0 mm
16:17 83.2 °F /  28.4 °C 59.0 °F /  15 °C 29.86 in /  1011.1 hPa WNW 4.1 mph /  6.6 km/h 5.8 mph /  9.3 km/h 44 % 0.00 in /  0 mm
16:22 83.1 °F /  28.4 °C 57.0 °F /  13.9 °C 29.87 in /  1011.4 hPa WNW 1.9 mph /  3.1 km/h 6.9 mph /  11.1 km/h 41 % 0.00 in /  0 mm
16:27 82.9 °F /  28.3 °C 58.7 °F /  14.8 °C 29.86 in /  1011.1 hPa NW 0.8 mph /  1.3 km/h 3.5 mph /  5.6 km/h 44 % 0.00 in /  0 mm
16:32 82.9 °F /  28.3 °C 59.4 °F /  15.2 °C 29.87 in /  1011.4 hPa WNW 1.8 mph /  2.9 km/h 3.5 mph /  5.6 km/h 45 % 0.00 in /  0 mm
16:37 82.8 °F /  28.2 °C 58.7 °F /  14.8 °C 29.87 in /  1011.4 hPa WNW 2.0 mph /  3.2 km/h 8.1 mph /  13 km/h 44 % 0.00 in /  0 mm
16:42 82.6 °F /  28.1 °C 57.8 °F /  14.3 °C 29.86 in /  1011.1 hPa NNW 2.1 mph /  3.4 km/h 5.8 mph /  9.3 km/h 43 % 0.00 in /  0 mm
16:43 82.5 °F /  28.1 °C 58.4 °F /  14.7 °C 29.86 in /  1011.1 hPa WNW 2.8 mph /  4.5 km/h 4.6 mph /  7.4 km/h 44 % 0.00 in /  0 mm
16:48 82.2 °F /  27.9 °C 56.8 °F /  13.8 °C 29.86 in /  1011.1 hPa WNW 2.9 mph /  4.7 km/h 6.0 mph /  9.7 km/h 42 % 0.00 in /  0 mm
16:53 82.0 °F /  27.8 °C 56.6 °F /  13.7 °C 29.86 in /  1011.1 hPa West 0.9 mph /  1.4 km/h 4.6 mph /  7.4 km/h 42 % 0.00 in /  0 mm
16:58 81.9 °F /  27.7 °C 57.2 °F /  14 °C 29.86 in /  1011.1 hPa WNW 1.2 mph /  1.9 km/h 4.6 mph /  7.4 km/h 43 % 0.00 in /  0 mm
17:03 81.8 °F /  27.7 °C 55.8 °F /  13.2 °C 29.86 in /  1011.1 hPa WNW 3.8 mph /  6.1 km/h 5.8 mph /  9.3 km/h 41 % 0.00 in /  0 mm
17:08 81.6 °F /  27.6 °C 56.9 °F /  13.8 °C 29.86 in /  1011.1 hPa NNW 1.0 mph /  1.6 km/h 3.5 mph /  5.6 km/h 43 % 0.00 in /  0 mm
17:13 81.2 °F /  27.3 °C 56.6 °F /  13.7 °C 29.86 in /  1011.1 hPa NW 1.4 mph /  2.3 km/h 5.8 mph /  9.3 km/h 43 % 0.00 in /  0 mm
17:18 81.0 °F /  27.2 °C 57.0 °F /  13.9 °C 29.86 in /  1011.1 hPa WNW 1.3 mph /  2.1 km/h 3.5 mph /  5.6 km/h 44 % 0.00 in /  0 mm
17:23 80.8 °F /  27.1 °C 58.1 °F /  14.5 °C 29.87 in /  1011.4 hPa West 2.2 mph /  3.5 km/h 3.5 mph /  5.6 km/h 46 % 0.00 in /  0 mm
17:28 80.6 °F /  27 °C 55.4 °F /  13 °C 29.87 in /  1011.4 hPa NW 1.2 mph /  1.9 km/h 6.9 mph /  11.1 km/h 42 % 0.00 in /  0 mm
17:33 80.5 °F /  26.9 °C 56.6 °F /  13.7 °C 29.87 in /  1011.4 hPa NW 3.1 mph /  5 km/h 5.8 mph /  9.3 km/h 44 % 0.00 in /  0 mm
17:38 80.3 °F /  26.8 °C 57.0 °F /  13.9 °C 29.87 in /  1011.4 hPa WNW 0.6 mph /  1 km/h 3.5 mph /  5.6 km/h 45 % 0.00 in /  0 mm
17:44 80.0 °F /  26.7 °C 58.0 °F /  14.4 °C 29.87 in /  1011.4 hPa NNW 2.1 mph /  3.4 km/h 2.3 mph /  3.7 km/h 47 % 0.00 in /  0 mm
17:49 79.7 °F /  26.5 °C 57.1 °F /  13.9 °C 29.87 in /  1011.4 hPa WNW 0.7 mph /  1.1 km/h 4.6 mph /  7.4 km/h 46 % 0.00 in /  0 mm
17:54 79.5 °F /  26.4 °C 58.1 °F /  14.5 °C 29.87 in /  1011.4 hPa NW 3.1 mph /  5 km/h 4.0 mph /  6.4 km/h 48 % 0.00 in /  0 mm
17:59 79.3 °F /  26.3 °C 56.7 °F /  13.7 °C 29.87 in /  1011.4 hPa West 1.8 mph /  2.9 km/h 5.0 mph /  8 km/h 46 % 0.00 in /  0 mm
18:04 79.0 °F /  26.1 °C 56.5 °F /  13.6 °C 29.86 in /  1011.1 hPa WNW 0.4 mph /  0.6 km/h 3.5 mph /  5.6 km/h 46 % 0.00 in /  0 mm
18:09 78.7 °F /  25.9 °C 56.8 °F /  13.8 °C 29.87 in /  1011.4 hPa WNW 1.3 mph /  2.1 km/h 3.5 mph /  5.6 km/h 47 % 0.00 in /  0 mm
18:14 78.4 °F /  25.8 °C 56.5 °F /  13.6 °C 29.86 in /  1011.1 hPa North 1.3 mph /  2.1 km/h 4.6 mph /  7.4 km/h 47 % 0.00 in /  0 mm
18:19 78.0 °F /  25.6 °C 57.9 °F /  14.4 °C 29.86 in /  1011.1 hPa NNE 2.2 mph /  3.5 km/h 3.5 mph /  5.6 km/h 50 % 0.00 in /  0 mm
18:24 77.7 °F /  25.4 °C 59.2 °F /  15.1 °C 29.87 in /  1011.4 hPa North 3.0 mph /  4.8 km/h 3.5 mph /  5.6 km/h 53 % 0.00 in /  0 mm
18:29 77.3 °F /  25.2 °C 59.4 °F /  15.2 °C 29.87 in /  1011.4 hPa WNW 0.7 mph /  1.1 km/h 3.5 mph /  5.6 km/h 54 % 0.00 in /  0 mm
18:30 77.3 °F /  25.2 °C 59.4 °F /  15.2 °C 29.87 in /  1011.4 hPa NNE 1.1 mph /  1.8 km/h 3.5 mph /  5.6 km/h 54 % 0.00 in /  0 mm
18:35 76.9 °F /  24.9 °C 58.5 °F /  14.7 °C 29.87 in /  1011.4 hPa NNE 1.0 mph /  1.6 km/h 4.6 mph /  7.4 km/h 53 % 0.00 in /  0 mm
18:40 76.6 °F /  24.8 °C 58.2 °F /  14.6 °C 29.87 in /  1011.4 hPa North 2.4 mph /  3.9 km/h 4.6 mph /  7.4 km/h 53 % 0.00 in /  0 mm
18:45 76.3 °F /  24.6 °C 57.4 °F /  14.1 °C 29.87 in /  1011.4 hPa NNE 2.7 mph /  4.3 km/h 6.9 mph /  11.1 km/h 52 % 0.00 in /  0 mm
18:50 76.1 °F /  24.5 °C 58.2 °F /  14.6 °C 29.87 in /  1011.4 hPa West 0.8 mph /  1.3 km/h 3.5 mph /  5.6 km/h 54 % 0.00 in /  0 mm
18:55 75.8 °F /  24.3 °C 57.4 °F /  14.1 °C 29.87 in /  1011.4 hPa North 1.8 mph /  2.9 km/h 4.6 mph /  7.4 km/h 53 % 0.00 in /  0 mm
19:00 75.6 °F /  24.2 °C 57.8 °F /  14.3 °C 29.87 in /  1011.4 hPa North 1.5 mph /  2.4 km/h 4.6 mph /  7.4 km/h 54 % 0.00 in /  0 mm
19:05 75.4 °F /  24.1 °C 58.1 °F /  14.5 °C 29.87 in /  1011.4 hPa NNW 0.7 mph /  1.1 km/h 2.3 mph /  3.7 km/h 55 % 0.00 in /  0 mm
19:10 75.2 °F /  24 °C 57.4 °F /  14.1 °C 29.87 in /  1011.4 hPa North 1.8 mph /  2.9 km/h 5.8 mph /  9.3 km/h 54 % 0.00 in /  0 mm
19:15 75.0 °F /  23.9 °C 57.2 °F /  14 °C 29.87 in /  1011.4 hPa Calm   2.0 mph /  3.2 km/h 54 % 0.00 in /  0 mm
19:20 74.8 °F /  23.8 °C 57.5 °F /  14.2 °C 29.87 in /  1011.4 hPa NNE 0.4 mph /  0.6 km/h 2.3 mph /  3.7 km/h 55 % 0.00 in /  0 mm
19:25 74.6 °F /  23.7 °C 57.9 °F /  14.4 °C 29.87 in /  1011.4 hPa North 0.5 mph /  0.8 km/h 2.3 mph /  3.7 km/h 56 % 0.00 in /  0 mm
19:30 74.2 °F /  23.4 °C 57.5 °F /  14.2 °C 29.87 in /  1011.4 hPa NNE 3.1 mph /  5 km/h 6.9 mph /  11.1 km/h 56 % 0.00 in /  0 mm
19:35 73.9 °F /  23.3 °C 57.2 °F /  14 °C 29.88 in /  1011.7 hPa NNE 0.1 mph /  0.2 km/h 1.2 mph /  1.9 km/h 56 % 0.00 in /  0 mm
19:40 73.7 °F /  23.2 °C 58.0 °F /  14.4 °C 29.88 in /  1011.7 hPa NNE 1.2 mph /  1.9 km/h 2.3 mph /  3.7 km/h 58 % 0.00 in /  0 mm
19:45 73.6 °F /  23.1 °C 57.9 °F /  14.4 °C 29.88 in /  1011.7 hPa NNE 1.3 mph /  2.1 km/h 3.5 mph /  5.6 km/h 58 % 0.00 in /  0 mm
19:50 73.5 °F /  23.1 °C 57.8 °F /  14.3 °C 29.88 in /  1011.7 hPa WNW 0.2 mph /  0.3 km/h 1.2 mph /  1.9 km/h 58 % 0.00 in /  0 mm
19:55 73.4 °F /  23 °C 58.2 °F /  14.6 °C 29.88 in /  1011.7 hPa NNE 1.1 mph /  1.8 km/h 3.5 mph /  5.6 km/h 59 % 0.00 in /  0 mm
20:00 73.2 °F /  22.9 °C 58.0 °F /  14.4 °C 29.88 in /  1011.7 hPa Calm     59 % 0.00 in /  0 mm
20:05 73.1 °F /  22.8 °C 57.9 °F /  14.4 °C 29.88 in /  1011.7 hPa North 0.5 mph /  0.8 km/h 3.5 mph /  5.6 km/h 59 % 0.00 in /  0 mm
20:10 72.9 °F /  22.7 °C 58.2 °F /  14.6 °C 29.89 in /  1012.1 hPa NNE 0.7 mph /  1.1 km/h 2.3 mph /  3.7 km/h 60 % 0.00 in /  0 mm
20:15 72.7 °F /  22.6 °C 58.0 °F /  14.4 °C 29.89 in /  1012.1 hPa NNE 1.2 mph /  1.9 km/h 2.3 mph /  3.7 km/h 60 % 0.00 in /  0 mm
20:20 72.6 °F /  22.6 °C 57.9 °F /  14.4 °C 29.89 in /  1012.1 hPa Calm     60 % 0.00 in /  0 mm
20:25 72.4 °F /  22.4 °C 58.2 °F /  14.6 °C 29.89 in /  1012.1 hPa NNE 0.1 mph /  0.2 km/h 1.2 mph /  1.9 km/h 61 % 0.00 in /  0 mm
20:30 72.3 °F /  22.4 °C 58.5 °F /  14.7 °C 29.89 in /  1012.1 hPa NNE 1.9 mph /  3.1 km/h 2.3 mph /  3.7 km/h 62 % 0.00 in /  0 mm
20:35 72.1 °F /  22.3 °C 58.8 °F /  14.9 °C 29.90 in /  1012.4 hPa NNE 2.0 mph /  3.2 km/h 3.5 mph /  5.6 km/h 63 % 0.00 in /  0 mm
20:41 72.0 °F /  22.2 °C 58.7 °F /  14.8 °C 29.90 in /  1012.4 hPa NNE 1.0 mph /  1.6 km/h 6.0 mph /  9.7 km/h 63 % 0.00 in /  0 mm
20:46 71.8 °F /  22.1 °C 58.5 °F /  14.7 °C 29.90 in /  1012.4 hPa Calm   1.2 mph /  1.9 km/h 63 % 0.00 in /  0 mm
20:51 71.7 °F /  22.1 °C 58.9 °F /  14.9 °C 29.90 in /  1012.4 hPa Calm   2.3 mph /  3.7 km/h 64 % 0.00 in /  0 mm
20:56 71.6 °F /  22 °C 59.6 °F /  15.3 °C 29.90 in /  1012.4 hPa Calm     66 % 0.00 in /  0 mm
21:01 71.4 °F /  21.9 °C 59.9 °F /  15.5 °C 29.90 in /  1012.4 hPa Calm     67 % 0.00 in /  0 mm
21:06 71.3 °F /  21.8 °C 59.8 °F /  15.4 °C 29.90 in /  1012.4 hPa Calm     67 % 0.00 in /  0 mm
21:11 71.0 °F /  21.7 °C 59.9 °F /  15.5 °C 29.91 in /  1012.8 hPa Calm   1.0 mph /  1.6 km/h 68 % 0.00 in /  0 mm
21:16 70.7 °F /  21.5 °C 59.6 °F /  15.3 °C 29.91 in /  1012.8 hPa Calm     68 % 0.00 in /  0 mm
21:21 70.4 °F /  21.3 °C 59.3 °F /  15.2 °C 29.91 in /  1012.8 hPa Calm     68 % 0.00 in /  0 mm
21:26 70.1 °F /  21.2 °C 59.5 °F /  15.3 °C 29.91 in /  1012.8 hPa Calm     69 % 0.00 in /  0 mm
21:31 69.8 °F /  21 °C 59.2 °F /  15.1 °C 29.91 in /  1012.8 hPa Calm     69 % 0.00 in /  0 mm
21:36 69.4 °F /  20.8 °C 59.2 °F /  15.1 °C 29.91 in /  1012.8 hPa Calm     70 % 0.00 in /  0 mm
21:41 69.1 °F /  20.6 °C 58.9 °F /  14.9 °C 29.90 in /  1012.4 hPa Calm     70 % 0.00 in /  0 mm
21:46 68.8 °F /  20.4 °C 59.0 °F /  15 °C 29.91 in /  1012.8 hPa Calm     71 % 0.00 in /  0 mm
21:51 68.5 °F /  20.3 °C 59.1 °F /  15.1 °C 29.90 in /  1012.4 hPa Calm     72 % 0.00 in /  0 mm
21:56 68.2 °F /  20.1 °C 59.2 °F /  15.1 °C 29.90 in /  1012.4 hPa Calm   1.0 mph /  1.6 km/h 73 % 0.00 in /  0 mm
22:01 67.9 °F /  19.9 °C 59.3 °F /  15.2 °C 29.90 in /  1012.4 hPa Calm     74 % 0.00 in /  0 mm
22:06 67.6 °F /  19.8 °C 59.0 °F /  15 °C 29.90 in /  1012.4 hPa North 0.2 mph /  0.3 km/h 1.0 mph /  1.6 km/h 74 % 0.00 in /  0 mm
22:11 67.3 °F /  19.6 °C 59.1 °F /  15.1 °C 29.90 in /  1012.4 hPa Calm   1.0 mph /  1.6 km/h 75 % 0.00 in /  0 mm
22:16 67.0 °F /  19.4 °C 59.2 °F /  15.1 °C 29.90 in /  1012.4 hPa North 0.1 mph /  0.2 km/h 1.2 mph /  1.9 km/h 76 % 0.00 in /  0 mm
22:21 66.7 °F /  19.3 °C 58.9 °F /  14.9 °C 29.90 in /  1012.4 hPa Calm     76 % 0.00 in /  0 mm
22:26 66.5 °F /  19.2 °C 59.1 °F /  15.1 °C 29.90 in /  1012.4 hPa Calm     77 % 0.00 in /  0 mm
22:31 66.2 °F /  19 °C 59.1 °F /  15.1 °C 29.90 in /  1012.4 hPa Calm     78 % 0.00 in /  0 mm
22:36 66.0 °F /  18.9 °C 58.9 °F /  14.9 °C 29.90 in /  1012.4 hPa NNW 0.8 mph /  1.3 km/h 1.2 mph /  1.9 km/h 78 % 0.00 in /  0 mm
22:41 65.8 °F /  18.8 °C 59.1 °F /  15.1 °C 29.90 in /  1012.4 hPa NNW 1.3 mph /  2.1 km/h 2.3 mph /  3.7 km/h 79 % 0.00 in /  0 mm
22:46 65.6 °F /  18.7 °C 58.9 °F /  14.9 °C 29.90 in /  1012.4 hPa Calm   1.2 mph /  1.9 km/h 79 % 0.00 in /  0 mm
22:51 65.4 °F /  18.6 °C 59.1 °F /  15.1 °C 29.90 in /  1012.4 hPa NNW 0.1 mph /  0.2 km/h   80 % 0.00 in /  0 mm
22:56 65.3 °F /  18.5 °C 59.0 °F /  15 °C 29.91 in /  1012.8 hPa NNW 0.8 mph /  1.3 km/h 2.3 mph /  3.7 km/h 80 % 0.00 in /  0 mm
23:01 65.1 °F /  18.4 °C 59.1 °F /  15.1 °C 29.90 in /  1012.4 hPa NNW 0.8 mph /  1.3 km/h 2.3 mph /  3.7 km/h 81 % 0.00 in /  0 mm
23:06 65.0 °F /  18.3 °C 59.4 °F /  15.2 °C 29.90 in /  1012.4 hPa NNW 0.1 mph /  0.2 km/h 1.2 mph /  1.9 km/h 82 % 0.00 in /  0 mm
23:11 64.8 °F /  18.2 °C 59.2 °F /  15.1 °C 29.91 in /  1012.8 hPa NNW 0.2 mph /  0.3 km/h 1.2 mph /  1.9 km/h 82 % 0.00 in /  0 mm
23:16 64.7 °F /  18.2 °C 59.4 °F /  15.2 °C 29.91 in /  1012.8 hPa NNW 0.1 mph /  0.2 km/h 2.3 mph /  3.7 km/h 83 % 0.00 in /  0 mm
23:21 64.6 °F /  18.1 °C 59.7 °F /  15.4 °C 29.91 in /  1012.8 hPa NE 2.9 mph /  4.7 km/h 4.0 mph /  6.4 km/h 84 % 0.00 in /  0 mm
23:26 64.6 °F /  18.1 °C 59.3 °F /  15.2 °C 29.91 in /  1012.8 hPa North 4.7 mph /  7.6 km/h 9.2 mph /  14.8 km/h 83 % 0.00 in /  0 mm
23:31 64.9 °F /  18.3 °C 59.3 °F /  15.2 °C 29.91 in /  1012.8 hPa NNE 3.7 mph /  6 km/h 10.0 mph /  16.1 km/h 82 % 0.00 in /  0 mm
23:36 65.2 °F /  18.4 °C 59.2 °F /  15.1 °C 29.92 in /  1013.1 hPa North 2.9 mph /  4.7 km/h 5.8 mph /  9.3 km/h 81 % 0.00 in /  0 mm
23:41 65.6 °F /  18.7 °C 59.3 °F /  15.2 °C 29.92 in /  1013.1 hPa NNW 3.0 mph /  4.8 km/h 8.1 mph /  13 km/h 80 % 0.00 in /  0 mm
23:46 66.0 °F /  18.9 °C 58.9 °F /  14.9 °C 29.92 in /  1013.1 hPa North 3.8 mph /  6.1 km/h 8.1 mph /  13 km/h 78 % 0.00 in /  0 mm
23:51 66.3 °F /  19.1 °C 58.9 °F /  14.9 °C 29.92 in /  1013.1 hPa North 3.7 mph /  6 km/h 4.0 mph /  6.4 km/h 77 % 0.00 in /  0 mm
23:56 66.7 °F /  19.3 °C 59.3 °F /  15.2 °C 29.92 in /  1013.1 hPa North 3.5 mph /  5.6 km/h 6.9 mph /  11.1 km/h 77 % 0.00 in /  0 mm
Crab Meadow Weather
Compliments of Weather Underground - 3 mb

Script developed by  Jim McMurry - jmcmurry@mwt.net Adapted for the template by  Wim van der Kuil - Leuven-Template.eu

Recycling: The U.S. is the #1 trash-producing country in the world at 1,609 pounds per person per year. This means that 5% of the world's people generate 40% of the world's waste.